"Pseudo-MPEC" for P11BYPc

Created 2022 Nov 26 13:22:18 UT using Find_Orb

Click here for an explanation of pseudo-MPECs

 
 Astrometry: 
     P11BYPc* C2022 11 23k9jtDr7mea.\S^_3*w::iJeKDmjmRU8kFfiFe2ANnt2-bp*0NLOSF51
     P11BYPc  C2022 11 23JwCqOy/tEuc=AstrometryBC).dWV9Cc!9G##O)R(SOLJXK3RJboF51
     P11BYPc  C2022 11 23A^lJl1[$$?%qg\t?'yL0KPiPcuT%EudkFV[3`R_1su,jn3i@wnpfF51
     P11BYPc KC2022 11 23x3R9aM#RM3/ciISO4L$@ps-_9+-dK+Qg]D(e!5l5xU5gXBpmIug?L01
     P11BYPc KC2022 11 23nOYaredacted;Zf%_rW'/UcNWRuFP*5cXh0[cw1L3M`RLc'5?jvCL01
     P11BYPc KC2022 11 239BMCWk`iZpJwH%/N86i8hi,pTK:r!7ewe.T0IDjsHBuM+JfAmX/6L01
     P11BYPc KC2022 11 23wo`+click@Wu8vrWhere*Mg-K2'MT!_gsyi/v_o[YJlUhMsMT`ZYL01
     P11BYPc KC2022 11 23r;-.eDOErNi[%(+:a/-pKuxxforR^]21R?7explanationp'WoVVL01
     P11BYPc KC2022 11 24.17113404 00 29.630+23 31 49.50   ~BO4q       VNEOCPI52
     P11BYPc KC2022 11 24.17398104 00 29.310+23 31 50.60   ~BO4q       VNEOCPI52
     P11BYPc !C2022 11 25A*yc'a$Cpe9u:7s=D2TVw,Oh#VEL2VmpUIZ718Z[#MW=?*Zc4smuJ04
     P11BYPc !C2022 11 25H\R$'$j7K`Gtt^_2u5E,Sd6gM-VQH\]LaUfWV`Q:d2uSX',BqNJ$J04
     P11BYPc KC2022 11 25.22489003 58 19.860+23 37 02.30   ~BP67 20.99GVNEOCPI52
     P11BYPc KC2022 11 25.23780703 58 18.220+23 37 06.30   ~BP67 20.61GVNEOCPI52
     P11BYPc KC2022 11 26.16270203 56 22.852+23 41 33.32   ~BQ4M 21.60GVNEOCPI52
     P11BYPc KC2022 11 26.16525003 56 22.628+23 41 32.82   ~BQ4M 20.99GVNEOCPI52
     P11BYPc KC2022 11 26.16780703 56 22.283+23 41 33.94   ~BQ4M 22.16GVNEOCPI52
     P11BYPc KC2022 11 26.17035303 56 21.865+23 41 35.27   ~BQ4M 21.11GVNEOCPI52

Station data:
(F51) Pan-STARRS 1, Haleakala  (N20.707234 W156.255910)  US/Hawaii.
   Observers J. Bulger, T. Lowe, A. Schultz, M. Willman. Measurers K.
   Chambers, S. Chastel, T. de Boer, L. Denneau, J. Fairlamb, H. Flewelling,
   M. Huber, C.-C. Lin, E. Magnier, Y. Ramanjooloo, R. Wainscoat, R. Weryk.
   1.8-m Ritchey-Chrétien + CCD.
(I52) Steward Observatory, Mt. Lemmon Station  (N32.442544 W110.788920)
   US/Arizona.  Observers T. A. Pruyne, B. M. Africano, E. J. Christensen, G.
   A. Farneth, D. C. Fuls, A. R. Gibbs, A. D. Grauer, H. Gröller, J. A.
   Johnson, R. A. Kowalski, S. M. Larson, G. J. Leonard, D. Rankin, R. L.
   Seaman, F. C. Shelly, K. W. Wierzchoś. 1.0-m reflector + CCD.
(J04) ESA Optical Ground Station, Tenerife  (N28.300922 W16.511830)  Canary
   Islands (Spain).  Observer D. Abreu. Measurers M. Micheli, D. Koschny, E.
   Schwab, M. Busch, A. Knöfel. 1.0-m f/4.4 reflector + CCD.
(L01) Višnjan Observatory, Tičan  (N45.290897 E13.749300)  Croatia.
   Observers K. Korlević, D. Pujagic, V. Dobos. Measurers D. Pujagic, K.
   Korlević. 1.0-m f/2.9 reflector + CCD.

Orbital elements:  P11BYPc
   Perihelion 2023 Apr 3.28646 +/- 0.856 TT =  6:52:30 (JD 2460037.78646)
Epoch 2022 Nov 26.0 TT = JDT 2459909.5   Earth MOID: 0.1004   Ma: 0.0189
M 295.84674771 +/- 0.7              (J2000 ecliptic)          AutoNEOCP
n   0.50007811 +/- 0.00551          Peri.  113.50242 +/- 0.29
a   1.57196961 +/- 0.0116           Node    52.89674 +/- 0.10
e   0.3382905 +/- 0.00751           Incl.    6.34324 +/- 0.13
P   1.97/719.87d           H 21.6   G  0.15   U  9.3
q 1.04018717 +/- 0.00438    Q 2.10375206 +/- 0.0272
From 18 observations 2022 Nov. 23-26; mean residual 0".36
Residuals in arcseconds: 
221123 F51  .03-  .05-    221123 L01  .13+  .14-    221125 I52  .14-  .00     
221123 F51  .22+  .13+    221123 L01  .21-  .04-    221125 I52  .41+  .04+    
221123 F51  .11-  .03+    221124 I52  .35-  .63-    221126 I52  .78-  .57+    
221123 L01  .09+  .16+    221124 I52  .19+  .45-    221126 I52  .72+  .73-    
221123 L01  .26-  .56+    221125 J04  .13+  .29+    221126 I52  .56+  .41-    
221123 L01  .21+  .14-    221125 J04  .14-  .45+    221126 I52  .61-  .13+    

Ephemerides (geocentric):
Date (UTC) HH   RA             Dec           delta  r     elong  mag " sig PA
---- --------  ------------   ------------  ------ ------ -----  --- --------
2022 11 26 13  03 55 34.272   +23 43 25.35  .52215 1.5083 176.0 21.4 .131  95
2022 11 26 14  03 55 28.991   +23 43 37.21  .52198 1.5081 176.0 21.4 .130  93
2022 11 26 15  03 55 23.706   +23 43 49.06  .52180 1.5079 176.0 21.4 .129  92
2022 11 26 16  03 55 18.418   +23 44 00.90  .52163 1.5077 175.9 21.4 .128  90
2022 11 26 17  03 55 13.127   +23 44 12.73  .52145 1.5075 175.9 21.4 .127  88
2022 11 26 18  03 55 07.833   +23 44 24.55  .52128 1.5073 175.8 21.4 .125  87
2022 11 26 19  03 55 02.535   +23 44 36.36  .52110 1.5071 175.8 21.4 .124  85
2022 11 26 20  03 54 57.235   +23 44 48.16  .52093 1.5069 175.7 21.4 .123  83
2022 11 26 21  03 54 51.931   +23 44 59.95  .52076 1.5067 175.7 21.4 .122  81
2022 11 26 22  03 54 46.624   +23 45 11.73  .52059 1.5065 175.7 21.4 .120  79
2022 11 26 23  03 54 41.314   +23 45 23.49  .52041 1.5063 175.6 21.4 .119  77
2022 11 27 00  03 54 36.002   +23 45 35.25  .52024 1.5061 175.6 21.4 .118  74
2022 11 27 01  03 54 30.686   +23 45 47.00  .52007 1.5059 175.5 21.4 .117  72
2022 11 27 02  03 54 25.367   +23 45 58.73  .51990 1.5057 175.5 21.4 .116  70
2022 11 27 03  03 54 20.045   +23 46 10.46  .51973 1.5055 175.4 21.4 .115  67
2022 11 27 04  03 54 14.720   +23 46 22.18  .51956 1.5053 175.4 21.4 .114  64
2022 11 27 05  03 54 09.392   +23 46 33.88  .51939 1.5051 175.3 21.4 .113  62
2022 11 27 06  03 54 04.061   +23 46 45.58  .51922 1.5049 175.3 21.4 .112  59
2022 11 27 07  03 53 58.727   +23 46 57.26  .51905 1.5047 175.2 21.4 .112  56
2022 11 27 08  03 53 53.390   +23 47 08.93  .51888 1.5045 175.2 21.4 .112  53
2022 11 27 09  03 53 48.050   +23 47 20.60  .51871 1.5043 175.1 21.4 .112  49
2022 11 27 10  03 53 42.708   +23 47 32.25  .51854 1.5041 175.1 21.4 .112  46
2022 11 27 11  03 53 37.362   +23 47 43.89  .51837 1.5039 175.0 21.4 .113  43
2022 11 27 12  03 53 32.014   +23 47 55.52  .51820 1.5037 175.0 21.4 .114  39
2022 11 27 13  03 53 26.663   +23 48 07.14  .51804 1.5035 174.9 21.4 .115  36
2022 11 27 14  03 53 21.309   +23 48 18.75  .51787 1.5033 174.9 21.4 .117  32
2022 11 27 15  03 53 15.952   +23 48 30.35  .51770 1.5031 174.8 21.4 .119  29
2022 11 27 16  03 53 10.593   +23 48 41.94  .51754 1.5029 174.8 21.4 .121  25
2022 11 27 17  03 53 05.230   +23 48 53.51  .51737 1.5027 174.7 21.4 .124  22
2022 11 27 18  03 52 59.865   +23 49 05.08  .51721 1.5025 174.7 21.4 .127  19
2022 11 27 19  03 52 54.497   +23 49 16.64  .51704 1.5023 174.6 21.4 .131  15
2022 11 27 20  03 52 49.127   +23 49 28.18  .51688 1.5021 174.6 21.4 .135  12
2022 11 27 21  03 52 43.754   +23 49 39.72  .51671 1.5019 174.5 21.4 .139   9
2022 11 27 22  03 52 38.378   +23 49 51.24  .51655 1.5017 174.5 21.4 .144   6
2022 11 27 23  03 52 32.999   +23 50 02.75  .51638 1.5015 174.4 21.4 .150   3
2022 11 28 00  03 52 27.618   +23 50 14.25  .51622 1.5013 174.4 21.4 .155   1
2022 11 28 01  03 52 22.234   +23 50 25.74  .51606 1.5011 174.3 21.4 .161 178
2022 11 28 02  03 52 16.847   +23 50 37.22  .51589 1.5009 174.3 21.4 .168 175
2022 11 28 03  03 52 11.458   +23 50 48.69  .51573 1.5007 174.2 21.4 .175 173
2022 11 28 04  03 52 06.067   +23 51 00.15  .51557 1.5005 174.2 21.4 .182 171
2022 11 28 05  03 52 00.672   +23 51 11.60  .51541 1.5003 174.1 21.4 .190 169
2022 11 28 06  03 51 55.276   +23 51 23.04  .51525 1.5001 174.1 21.4 .198 167
2022 11 28 07  03 51 49.876   +23 51 34.46  .51509 1.4999 174.0 21.4 .207 165
2022 11 28 08  03 51 44.475   +23 51 45.88  .51493 1.4997 174.0 21.4 .216 163
2022 11 28 09  03 51 39.070   +23 51 57.28  .51477 1.4995 173.9 21.4 .225 161
2022 11 28 10  03 51 33.664   +23 52 08.67  .51461 1.4993 173.8 21.4 .234 159
2022 11 28 11  03 51 28.254   +23 52 20.06  .51445 1.4991 173.8 21.4 .244 158
2022 11 28 12  03 51 22.843   +23 52 31.43  .51429 1.4989 173.7 21.4 .255 156